カタログに戻る

THORAD AGENA D DEB

運用中SSO
NORAD 4766·DEBRIS·🇺🇸 United States

打ち上げ Apr 8, 1970 から Vandenberg Space Force Base

Loading…

次のパス

TLE

Source: Space-Track
1  4766U 70025DL  26223.93497962  .00000009  00000-0  81162-4 0  9992
2  4766 100.1414  18.8090 0008906 209.7514 301.8943 13.55955384784187

AllMySatでTHORAD AGENA D DEBをリアルタイム追跡

Download on the App Store